Weather in Dolinovka

Russia / Kamchatka Krai     55°07′16″N   159°04′03″E
temp.,
°C
wind,
m/s
gust,
m/s
humid.,
%
clouds,
%
prec.,
mm/h
press.,
hPa
HPBL,
m
28 september, tue
tue2800:00+5sw008524 0.0 101310
03:00+5w008594 0.0 101411
06:00+3sw119311 0.0 101512
09:00+5ssw23805 0.0 1016153
12:00+11sw245549 0.0 1016999
15:00+14wsw353766 0.0 10152084
18:00+11wnw1252100 0.0 101550
21:00+7s2264100 0.0 101619
29 september, wed
wed2900:00+6ssw237465 0.0 101642
03:00+7ssw31171100 0.0 1014361
06:00+7sw41268100 0.0 1012490
09:00+9sw41369100 0.0 1011641
12:00+14wsw48584 0.0 10111030
15:00+16w715425 0.0 10112028
18:00+13wsw6155414 0.0 10131799
21:00+10sw49605 0.0 1015226
30 september, thu
thu3000:00+5nne23845 0.0 101870
03:00+4nne2384100 0.0 102186
06:00+3nne1187100 0.0 102216
09:00+5nne2466100 0.0 1023231
12:00+9ne1256100 0.0 1023752
15:00+9se2263100 0.0 1022872
18:00+8sse2469100 0.0 1022396
21:00+7sse1377100 0.0 1023125
1 october, fri
fri100:00+6se1196100 3.4 1023108
03:00+6n0095100 0.1 102338
06:00+6e0093100 0.1 102323
09:00+6nne1191100 0.0 102396
12:00+8ne1285100 0.0 1023295
15:00+9nnw0179100 0.1 1022497
18:00+8nnw0091100 0.3 102121
21:00+7w0095100 0.4 102216
2 october, sat
sat200:00+7ssw0095100 0.4 102217
03:00+7wsw1195100 0.0 102118
06:00+7sw1195100 0.1 102125
09:00+7ssw1196100 0.4 102157
12:00+7ssw1296100 1.4 1021109
15:00+8ssw1195100 0.3 102090
18:00+8sw1196100 1.7 101942
21:00+7ssw0098100 1.9 101822